星链-5097 (STARLINK-5097 )

导读

STARLINK-5097是美国SpaceX公司星链星座中的一颗低轨互联网通信卫星,于2022年10月5日发射入轨,属于星链星座组网阶段的发射任务。星链卫星运行于约550公里近地轨道,搭载相控阵天线与氩气推进系统,依托低轨优势提供低时延宽带互联网服务,支撑全球偏远地区、移动场景的网络接入,是SpaceX构建全球卫星互联网星座的重要组成单元。

基本信息
目录编号:
53995
目录名称:
STARLINK-5097
国际标识:
2022-125AH
轨道中心:
EARTH
卫星名称:
星链-5097
卫星全名:
星链-5097 (STARLINK-5097 )
卫星状态:
在轨 (已飞行1349 天)
发射日期:
2022-10-05 UTC
国别 :
美国 (US)
星等 :
--
轨道信息
数据来源 国际轨道数据 AOE轨道数据
星历时间 2026-06-14T12:54:59+0800
1天前
查看轨道信息
2026-06-14T17:00:00+0800
22小时前
查看轨道信息
半长轴 6917.9km 6917.9km
偏心率 0.0001306 0.0001307
轨道倾角 53.161° 53.160°
近地点辐角 81.541° 79.374°
升交点赤经 140.733° 139.969°
平近点角 278.573° 125.493°
近地点 538.859km 538.858km
远地点 540.667km 540.668km
周期 95.438分钟 95.438分钟
每日圈数 15.088336 15.088338
详细信息
固有亮度:
5
最大亮度:
2.5
卫星平台:
Starlink v1.5
覆盖范围:
全球
运营商:
太空探索技术公司
运营商所在国:
美国
制造商(研发单位):
太空探索技术公司
制造商所在国:
美国
使用方式:
暂无
卫星简介
星链(Starlink)计划是由太空探索技术公司(SpaceX)提出的一个巨型低轨卫星互联网星座项目,计划在2019年至2024年间在太空搭建由约1.2万颗卫星组成的“星链”网络,其中1584颗将部署在地球上空550千米处的近地轨道,并从2020年开始工作。该卫星仍在工作。
2D轨道图
3D轨道图
轨道高度分析图
轨道倾角分析图
轨道综合分析图
查看轨道综合分析图